Location: Alfortville
(48.8058°N, 2.4204°E)
Time: 04:03:46
(UTC+00:00)

Cosmos 1980 Rocket - Pass Details

Date: 28 May 2022
Orbit: 827 x 851 km, 71.0° (Epoch: 05 July)

Event Time Altitude Azimuth Distance (km) Brightness Sun altitude
Rises 23:22:05 0° 282° (WNW) 3,398 5.6 -19.4°
Reaches altitude 10° 23:26:36 10° 316° (NW) 2,473 5.3 -19.5°
Maximum altitude 23:28:23 11° 334° (NNW) 2,378 5.5 -19.5°
Drops below altitude 10° 23:30:10 10° 353° (N) 2,480 5.9 -19.5°
Sets 23:34:44 0° 26° (NNE) 3,424 6.4 -19.6°
